Time,TemperatureF,DewpointF,PressureIn,WindDirection,WindDirectionDegrees,WindSpeedMPH,WindSpeedGustMPH,Humidity,HourlyPrecipIn,Conditions,Clouds,dailyrainin,SoftwareType,DateUTC
2013-04-24 00:04:00,56.1,11.8,30.03,WNW,296,0.0,0.0,17,0.00,,,-99.99,Weather View 32 v60,2013-04-24 04:04:00,
2013-04-24 00:09:00,55.9,15.4,30.03,WNW,296,0.0,0.0,20,0.00,,,-99.99,Weather View 32 v60,2013-04-24 04:09:00,
2013-04-24 00:15:00,55.9,15.4,30.03,WNW,296,0.0,0.0,20,0.00,,,-99.99,Weather View 32 v60,2013-04-24 04:15:00,
2013-04-24 00:24:00,55.8,15.2,30.03,WNW,296,0.0,0.0,20,0.00,,,-99.99,Weather View 32 v60,2013-04-24 04:24:00,
2013-04-24 00:29:00,55.6,15.1,30.03,WNW,296,0.0,0.0,20,0.00,,,-99.99,Weather View 32 v60,2013-04-24 04:29:00,
2013-04-24 00:34:00,55.4,14.9,30.03,WNW,296,0.0,0.0,20,0.00,,,-99.99,Weather View 32 v60,2013-04-24 04:34:00,
2013-04-24 00:40:00,55.2,14.8,30.03,WNW,296,0.0,0.0,20,0.00,,,-99.99,Weather View 32 v60,2013-04-24 04:40:00,
2013-04-24 00:50:00,54.9,14.5,30.03,WNW,296,0.0,0.0,20,0.00,,,-99.99,Weather View 32 v60,2013-04-24 04:50:00,
2013-04-24 00:54:00,54.9,14.5,30.03,WNW,296,0.0,0.0,20,0.00,,,-99.99,Weather View 32 v60,2013-04-24 04:54:00,
2013-04-24 01:00:00,54.5,14.2,30.03,WNW,296,0.0,0.0,20,0.00,,,-99.99,Weather View 32 v60,2013-04-24 05:00:00,
2013-04-24 01:09:00,54.3,14.0,30.00,WNW,296,0.0,0.0,20,0.00,,,-99.99,Weather View 32 v60,2013-04-24 05:09:00,
2013-04-24 01:14:00,54.3,14.0,30.00,WNW,296,0.0,0.0,20,0.00,,,-99.99,Weather View 32 v60,2013-04-24 05:14:00,
2013-04-24 01:24:00,54.3,14.0,30.00,WNW,296,0.0,0.0,20,0.00,,,-99.99,Weather View 32 v60,2013-04-24 05:24:00,
2013-04-24 01:34:00,54.3,14.0,30.00,WNW,296,0.0,0.0,20,0.00,,,-99.99,Weather View 32 v60,2013-04-24 05:34:00,
2013-04-24 01:39:00,54.1,13.9,30.00,WNW,296,0.0,0.0,20,0.00,,,-99.99,Weather View 32 v60,2013-04-24 05:39:00,
2013-04-24 01:44:00,54.0,13.7,30.00,WNW,296,0.0,0.0,20,0.00,,,-99.99,Weather View 32 v60,2013-04-24 05:44:00,
2013-04-24 01:49:00,54.0,13.7,30.00,WNW,296,0.0,0.0,20,0.00,,,-99.99,Weather View 32 v60,2013-04-24 05:49:00,
2013-04-24 02:00:00,53.6,13.4,30.00,WNW,296,0.0,0.0,20,0.00,,,-99.99,Weather View 32 v60,2013-04-24 06:00:00,
2013-04-24 02:09:00,53.4,16.5,30.00,WNW,296,0.0,0.0,23,0.00,,,-99.99,Weather View 32 v60,2013-04-24 06:09:00,
2013-04-24 02:14:00,53.2,16.3,30.00,WNW,296,0.0,0.0,23,0.00,,,-99.99,Weather View 32 v60,2013-04-24 06:14:00,
2013-04-24 02:24:00,53.1,16.2,30.00,WNW,296,0.0,0.0,23,0.00,,,-99.99,Weather View 32 v60,2013-04-24 06:24:00,
2013-04-24 02:30:00,53.1,16.2,30.00,WNW,296,0.0,0.0,23,0.00,,,-99.99,Weather View 32 v60,2013-04-24 06:30:00,
2013-04-24 02:39:00,52.9,16.0,30.00,WNW,296,0.0,0.0,23,0.00,,,-99.99,Weather View 32 v60,2013-04-24 06:39:00,
2013-04-24 02:44:00,52.7,15.9,30.00,WNW,296,0.0,0.0,23,0.00,,,-99.99,Weather View 32 v60,2013-04-24 06:44:00,
2013-04-24 02:49:00,52.7,15.9,30.00,WNW,296,0.0,0.0,23,0.00,,,-99.99,Weather View 32 v60,2013-04-24 06:49:00,
2013-04-24 02:59:00,52.9,18.0,30.00,NE,45,0.0,0.0,25,0.00,,,-99.99,Weather View 32 v60,2013-04-24 06:59:00,
2013-04-24 03:09:00,52.7,17.8,30.00,NE,45,0.0,0.0,25,0.00,,,-99.99,Weather View 32 v60,2013-04-24 07:09:00,
2013-04-24 03:18:00,52.7,18.7,30.00,NE,44,0.0,0.0,26,0.00,,,-99.99,Weather View 32 v60,2013-04-24 07:18:00,
2013-04-24 03:24:00,52.5,18.6,30.00,NE,45,0.0,0.0,26,0.00,,,-99.99,Weather View 32 v60,2013-04-24 07:24:00,
2013-04-24 03:34:00,52.3,18.4,30.00,NE,45,0.0,0.0,26,0.00,,,-99.99,Weather View 32 v60,2013-04-24 07:34:00,
2013-04-24 03:39:00,52.3,18.4,30.00,NE,45,0.0,0.0,26,0.00,,,-99.99,Weather View 32 v60,2013-04-24 07:39:00,
2013-04-24 03:44:00,52.2,18.3,30.00,NE,45,0.0,0.0,26,0.00,,,-99.99,Weather View 32 v60,2013-04-24 07:44:00,
2013-04-24 03:49:00,52.2,18.3,30.00,NE,45,0.0,0.0,26,0.00,,,-99.99,Weather View 32 v60,2013-04-24 07:49:00,
2013-04-24 03:54:00,52.2,18.3,30.00,NE,45,0.0,0.0,26,0.00,,,-99.99,Weather View 32 v60,2013-04-24 07:54:00,
2013-04-24 04:04:00,52.0,18.1,30.00,NE,45,0.0,0.0,26,0.00,,,-99.99,Weather View 32 v60,2013-04-24 08:04:00,
2013-04-24 04:09:00,52.0,18.1,30.00,NE,44,0.0,0.0,26,0.00,,,-99.99,Weather View 32 v60,2013-04-24 08:09:00,
2013-04-24 04:14:00,52.0,18.1,30.00,NE,45,0.0,0.0,26,0.00,,,-99.99,Weather View 32 v60,2013-04-24 08:14:00,
2013-04-24 04:19:00,51.8,17.9,30.00,NE,45,0.0,0.0,26,0.00,,,-99.99,Weather View 32 v60,2013-04-24 08:19:00,
2013-04-24 04:29:00,51.6,17.8,30.00,NE,44,0.0,0.0,26,0.00,,,-99.99,Weather View 32 v60,2013-04-24 08:29:00,
2013-04-24 04:39:00,51.4,17.6,30.00,NE,44,0.0,0.0,26,0.00,,,-99.99,Weather View 32 v60,2013-04-24 08:39:00,
2013-04-24 04:49:00,51.3,17.5,30.00,NE,45,0.0,0.0,26,0.00,,,-99.99,Weather View 32 v60,2013-04-24 08:49:00,
2013-04-24 04:59:00,51.3,18.4,30.00,NE,45,0.0,0.0,27,0.00,,,-99.99,Weather View 32 v60,2013-04-24 08:59:00,
2013-04-24 05:09:00,51.3,18.4,30.00,NE,44,0.0,0.0,27,0.00,,,-99.99,Weather View 32 v60,2013-04-24 09:09:00,
2013-04-24 05:14:00,51.4,18.5,30.00,NE,45,0.0,0.0,27,0.00,,,-99.99,Weather View 32 v60,2013-04-24 09:14:00,
2013-04-24 05:19:00,51.4,18.5,30.00,NE,44,0.0,0.0,27,0.00,,,-99.99,Weather View 32 v60,2013-04-24 09:19:00,
2013-04-24 05:29:00,51.6,18.7,30.00,NE,45,0.0,0.0,27,0.00,,,-99.99,Weather View 32 v60,2013-04-24 09:29:00,
2013-04-24 05:39:00,51.6,18.7,30.00,NE,44,0.0,0.0,27,0.00,,,-99.99,Weather View 32 v60,2013-04-24 09:39:00,
2013-04-24 05:49:00,51.4,18.5,30.00,NE,45,0.0,0.0,27,0.00,,,-99.99,Weather View 32 v60,2013-04-24 09:49:00,
2013-04-24 05:54:00,51.6,18.7,30.00,NE,45,0.0,0.0,27,0.00,,,-99.99,Weather View 32 v60,2013-04-24 09:54:00,
2013-04-24 05:59:00,51.6,18.7,30.00,NE,45,0.0,0.0,27,0.00,,,-99.99,Weather View 32 v60,2013-04-24 09:59:00,
2013-04-24 06:09:00,51.4,18.5,30.00,NE,45,0.0,0.0,27,0.00,,,-99.99,Weather View 32 v60,2013-04-24 10:09:00,
2013-04-24 06:14:00,51.3,18.4,30.00,NE,45,0.0,0.0,27,0.00,,,-99.99,Weather View 32 v60,2013-04-24 10:14:00,
2013-04-24 06:20:00,51.3,18.4,30.00,NE,45,0.0,0.0,27,0.00,,,-99.99,Weather View 32 v60,2013-04-24 10:20:00,
2013-04-24 06:29:00,51.3,18.4,30.00,NE,44,0.0,0.0,27,0.00,,,-99.99,Weather View 32 v60,2013-04-24 10:29:00,
2013-04-24 06:34:00,51.3,18.4,30.00,NE,45,0.0,0.0,27,0.00,,,-99.99,Weather View 32 v60,2013-04-24 10:34:00,
2013-04-24 06:39:00,51.4,19.4,30.00,NE,45,0.0,0.0,28,0.00,,,-99.99,Weather View 32 v60,2013-04-24 10:39:00,
2013-04-24 06:49:00,51.4,19.4,30.00,NE,45,0.0,0.0,28,0.00,,,-99.99,Weather View 32 v60,2013-04-24 10:49:00,
2013-04-24 06:54:00,51.4,19.4,30.00,NE,45,0.0,0.0,28,0.00,,,-99.99,Weather View 32 v60,2013-04-24 10:54:00,
2013-04-24 07:00:00,51.3,19.2,30.00,NE,45,0.0,0.0,28,0.00,,,-99.99,Weather View 32 v60,2013-04-24 11:00:00,
2013-04-24 07:09:00,51.3,19.2,30.00,NE,45,0.0,0.0,28,0.00,,,-99.99,Weather View 32 v60,2013-04-24 11:09:00,
2013-04-24 07:14:00,51.3,19.2,30.00,NE,45,0.0,0.0,28,0.00,,,-99.99,Weather View 32 v60,2013-04-24 11:14:00,
2013-04-24 07:19:00,51.3,19.2,30.00,NE,45,0.0,0.0,28,0.00,,,-99.99,Weather View 32 v60,2013-04-24 11:19:00,
2013-04-24 07:29:00,51.6,19.5,30.00,NE,45,0.0,0.0,28,0.00,,,-99.99,Weather View 32 v60,2013-04-24 11:29:00,
2013-04-24 07:35:00,51.8,19.7,30.00,NE,45,0.0,0.0,28,0.00,,,-99.99,Weather View 32 v60,2013-04-24 11:35:00,
2013-04-24 07:44:00,52.2,20.8,30.00,NE,45,0.0,0.0,29,0.00,,,-99.99,Weather View 32 v60,2013-04-24 11:44:00,
2013-04-24 07:50:00,52.3,21.0,30.00,NE,45,0.0,0.0,29,0.00,,,-99.99,Weather View 32 v60,2013-04-24 11:50:00,
2013-04-24 07:59:00,53.1,20.8,30.00,NE,45,0.0,0.0,28,0.00,,,-99.99,Weather View 32 v60,2013-04-24 11:59:00,
2013-04-24 08:04:00,53.1,21.6,30.00,NE,45,0.0,0.0,29,0.00,,,-99.99,Weather View 32 v60,2013-04-24 12:04:00,
2013-04-24 08:09:00,53.4,21.9,30.00,NE,45,0.0,0.0,29,0.00,,,-99.99,Weather View 32 v60,2013-04-24 12:09:00,
2013-04-24 08:19:00,54.0,22.4,30.00,NE,45,0.0,0.0,29,0.00,,,-99.99,Weather View 32 v60,2013-04-24 12:19:00,
2013-04-24 08:29:00,54.9,23.1,30.00,NE,45,0.0,0.0,29,0.00,,,-99.99,Weather View 32 v60,2013-04-24 12:29:00,
2013-04-24 08:39:00,55.8,23.9,30.00,NE,45,0.0,0.0,29,0.00,,,-99.99,Weather View 32 v60,2013-04-24 12:39:00,
2013-04-24 08:44:00,56.3,24.4,30.00,NE,45,0.0,0.0,29,0.00,,,-99.99,Weather View 32 v60,2013-04-24 12:44:00,
2013-04-24 08:49:00,56.5,24.5,30.00,NE,45,0.0,0.0,29,0.00,,,-99.99,Weather View 32 v60,2013-04-24 12:49:00,
2013-04-24 08:54:00,56.8,24.9,30.00,NE,45,0.0,0.0,29,0.00,,,-99.99,Weather View 32 v60,2013-04-24 12:54:00,
2013-04-24 09:05:00,57.6,25.5,30.00,NE,45,0.0,0.0,29,0.00,,,-99.99,Weather View 32 v60,2013-04-24 13:05:00,
2013-04-24 09:14:00,58.1,25.9,30.00,SSW,196,0.0,4.0,29,0.00,,,-99.99,Weather View 32 v60,2013-04-24 13:14:00,
2013-04-24 09:22:00,58.5,26.3,30.00,WSW,253,0.0,4.0,29,0.00,,,-99.99,Weather View 32 v60,2013-04-24 13:22:00,
2013-04-24 09:29:00,58.8,25.7,30.00,West,277,0.0,4.0,28,0.00,,,-99.99,Weather View 32 v60,2013-04-24 13:29:00,
2013-04-24 09:34:00,59.2,26.0,30.00,West,277,0.0,4.0,28,0.00,,,-99.99,Weather View 32 v60,2013-04-24 13:34:00,
2013-04-24 09:39:00,59.7,26.5,30.00,NW,318,0.0,4.0,28,0.00,,,-99.99,Weather View 32 v60,2013-04-24 13:39:00,
2013-04-24 09:45:00,60.1,25.9,30.00,NW,318,0.0,4.0,27,0.00,,,-99.99,Weather View 32 v60,2013-04-24 13:45:00,
2013-04-24 09:54:00,60.8,25.6,30.00,WSW,255,6.0,7.0,26,0.00,,,-99.99,Weather View 32 v60,2013-04-24 13:54:00,
2013-04-24 10:04:00,61.2,25.9,30.00,West,260,0.0,7.0,26,0.00,,,-99.99,Weather View 32 v60,2013-04-24 14:04:00,
2013-04-24 10:10:00,61.2,25.9,30.00,WSW,250,0.0,7.0,26,0.00,,,-99.99,Weather View 32 v60,2013-04-24 14:10:00,
2013-04-24 10:19:00,62.2,26.9,30.00,WSW,241,0.0,7.0,26,0.00,,,-99.99,Weather View 32 v60,2013-04-24 14:19:00,
2013-04-24 10:29:00,63.1,26.7,30.00,WSW,253,0.0,7.0,25,0.00,,,-99.99,Weather View 32 v60,2013-04-24 14:29:00,
2013-04-24 10:35:00,63.5,27.0,30.00,SSW,212,0.0,7.0,25,0.00,,,-99.99,Weather View 32 v60,2013-04-24 14:35:00,
2013-04-24 10:44:00,64.6,26.9,30.00,West,262,0.0,7.0,24,0.00,,,-99.99,Weather View 32 v60,2013-04-24 14:44:00,
2013-04-24 10:49:00,64.8,27.0,30.00,WSW,251,0.0,7.0,24,0.00,,,-99.99,Weather View 32 v60,2013-04-24 14:49:00,
2013-04-24 10:59:00,65.3,27.5,30.00,SE,134,4.0,6.0,24,0.00,,,-99.99,Weather View 32 v60,2013-04-24 14:59:00,
2013-04-24 11:05:00,66.0,28.1,30.00,East,83,3.0,6.0,24,0.00,,,-99.99,Weather View 32 v60,2013-04-24 15:05:00,
2013-04-24 11:14:00,67.8,28.6,30.00,West,277,3.0,5.0,23,0.00,,,-99.99,Weather View 32 v60,2013-04-24 15:14:00,
2013-04-24 11:19:00,68.4,29.0,30.00,SW,219,3.0,5.0,23,0.00,,,-99.99,Weather View 32 v60,2013-04-24 15:19:00,
2013-04-24 11:25:00,68.5,28.1,30.00,SSW,204,0.0,5.0,22,0.00,,,-99.99,Weather View 32 v60,2013-04-24 15:25:00,
2013-04-24 11:34:00,68.0,27.6,30.00,SW,221,0.0,5.0,22,0.00,,,-99.99,Weather View 32 v60,2013-04-24 15:34:00,
2013-04-24 11:39:00,67.6,25.0,30.00,NW,309,5.0,6.0,20,0.00,,,-99.99,Weather View 32 v60,2013-04-24 15:39:00,
2013-04-24 11:49:00,67.3,24.7,30.00,West,277,6.0,7.0,20,0.00,,,-99.99,Weather View 32 v60,2013-04-24 15:49:00,
2013-04-24 11:54:00,67.3,24.7,30.00,WSW,241,4.0,11.0,20,0.00,,,-99.99,Weather View 32 v60,2013-04-24 15:54:00,
2013-04-24 11:59:00,67.6,25.0,30.00,West,278,4.0,11.0,20,0.00,,,-99.99,Weather View 32 v60,2013-04-24 15:59:00,
2013-04-24 12:05:00,68.4,25.6,30.00,West,279,4.0,11.0,20,0.00,,,-99.99,Weather View 32 v60,2013-04-24 16:05:00,
2013-04-24 12:15:00,69.6,22.8,30.00,West,273,7.0,11.0,17,0.00,,,-99.99,Weather View 32 v60,2013-04-24 16:15:00,
2013-04-24 12:23:00,69.6,22.8,30.00,WNW,284,7.0,13.0,17,0.00,,,-99.99,Weather View 32 v60,2013-04-24 16:23:00,
2013-04-24 12:29:00,70.2,23.2,30.00,NW,316,3.0,13.0,17,0.00,,,-99.99,Weather View 32 v60,2013-04-24 16:29:00,
2013-04-24 12:34:00,70.5,23.5,30.00,West,261,6.0,13.0,17,0.00,,,-99.99,Weather View 32 v60,2013-04-24 16:34:00,
2013-04-24 12:40:00,70.7,22.2,30.00,WSW,252,5.0,13.0,16,0.00,,,-99.99,Weather View 32 v60,2013-04-24 16:40:00,
2013-04-24 12:50:00,72.3,23.5,30.00,WSW,258,5.0,13.0,16,0.00,,,-99.99,Weather View 32 v60,2013-04-24 16:50:00,
2013-04-24 12:59:00,72.3,23.5,30.00,NW,312,4.0,13.0,16,0.00,,,-99.99,Weather View 32 v60,2013-04-24 16:59:00,
2013-04-24 13:09:00,73.0,24.1,29.97,SSW,201,4.0,13.0,16,0.00,,,-99.99,Weather View 32 v60,2013-04-24 17:09:00,
2013-04-24 13:14:00,74.1,25.0,29.97,ESE,108,5.0,13.0,16,0.00,,,-99.99,Weather View 32 v60,2013-04-24 17:14:00,
2013-04-24 13:19:00,74.7,23.8,29.97,SSE,155,3.0,12.0,15,0.00,,,-99.99,Weather View 32 v60,2013-04-24 17:19:00,
2013-04-24 13:29:00,74.3,23.6,29.97,WSW,251,4.0,12.0,15,0.00,,,-99.99,Weather View 32 v60,2013-04-24 17:29:00,
2013-04-24 13:35:00,73.6,24.5,29.97,WNW,284,7.0,12.0,16,0.00,,,-99.99,Weather View 32 v60,2013-04-24 17:35:00,
2013-04-24 13:45:00,72.5,23.7,29.97,West,269,5.0,12.0,16,0.00,,,-99.99,Weather View 32 v60,2013-04-24 17:45:00,
2013-04-24 13:55:00,72.3,23.5,29.97,SSW,207,0.0,12.0,16,0.00,,,-99.99,Weather View 32 v60,2013-04-24 17:55:00,
2013-04-24 14:04:00,73.0,24.1,29.97,West,274,5.0,12.0,16,0.00,,,-99.99,Weather View 32 v60,2013-04-24 18:04:00,
2013-04-24 14:09:00,73.0,24.1,29.97,WNW,287,4.0,12.0,16,0.00,,,-99.99,Weather View 32 v60,2013-04-24 18:09:00,
2013-04-24 14:14:00,73.4,24.4,29.97,SE,127,0.0,12.0,16,0.00,,,-99.99,Weather View 32 v60,2013-04-24 18:14:00,
2013-04-24 14:25:00,74.3,25.1,29.97,WSW,251,6.0,12.0,16,0.00,,,-99.99,Weather View 32 v60,2013-04-24 18:25:00,
2013-04-24 14:34:00,74.1,25.0,29.97,WNW,288,5.0,10.0,16,0.00,,,-99.99,Weather View 32 v60,2013-04-24 18:34:00,
2013-04-24 14:44:00,73.4,19.5,29.97,West,279,6.0,10.0,13,0.00,,,-99.99,Weather View 32 v60,2013-04-24 18:44:00,
2013-04-24 14:49:00,73.2,19.3,29.94,WNW,294,5.0,10.0,13,0.00,,,-99.99,Weather View 32 v60,2013-04-24 18:49:00,
2013-04-24 14:54:00,73.0,19.2,29.94,West,273,3.0,10.0,13,0.00,,,-99.99,Weather View 32 v60,2013-04-24 18:54:00,
2013-04-24 15:04:00,75.0,24.1,29.94,West,260,6.0,10.0,15,0.00,,,-99.99,Weather View 32 v60,2013-04-24 19:04:00,
2013-04-24 15:10:00,75.7,24.7,29.94,WSW,258,0.0,10.0,15,0.00,,,-99.99,Weather View 32 v60,2013-04-24 19:10:00,
2013-04-24 15:19:00,75.6,24.6,29.94,WSW,255,4.0,10.0,15,0.00,,,-99.99,Weather View 32 v60,2013-04-24 19:19:00,
2013-04-24 15:24:00,75.4,21.0,29.94,WNW,292,4.0,7.0,13,0.00,,,-99.99,Weather View 32 v60,2013-04-24 19:24:00,
2013-04-24 15:30:00,74.5,20.3,29.94,WSW,255,4.0,7.0,13,0.00,,,-99.99,Weather View 32 v60,2013-04-24 19:30:00,
2013-04-24 15:35:00,73.9,19.9,29.94,West,262,4.0,7.0,13,0.00,,,-99.99,Weather View 32 v60,2013-04-24 19:35:00,
2013-04-24 15:44:00,73.2,19.3,29.94,WSW,244,3.0,8.0,13,0.00,,,-99.99,Weather View 32 v60,2013-04-24 19:44:00,
2013-04-24 15:54:00,72.9,19.0,29.94,West,264,4.0,9.0,13,0.00,,,-99.99,Weather View 32 v60,2013-04-24 19:54:00,
2013-04-24 16:04:00,72.5,20.5,29.91,SSW,199,0.0,9.0,14,0.00,,,-99.99,Weather View 32 v60,2013-04-24 20:04:00,
2013-04-24 16:09:00,72.3,20.3,29.91,SW,215,3.0,9.0,14,0.00,,,-99.99,Weather View 32 v60,2013-04-24 20:09:00,
2013-04-24 16:14:00,72.3,20.3,29.91,WNW,284,5.0,9.0,14,0.00,,,-99.99,Weather View 32 v60,2013-04-24 20:14:00,
2013-04-24 16:19:00,72.1,20.2,29.91,WNW,284,3.0,9.0,14,0.00,,,-99.99,Weather View 32 v60,2013-04-24 20:19:00,
2013-04-24 16:24:00,71.8,19.9,29.91,SW,229,4.0,9.0,14,0.00,,,-99.99,Weather View 32 v60,2013-04-24 20:24:00,
2013-04-24 16:34:00,71.8,19.9,29.91,West,264,4.0,9.0,14,0.00,,,-99.99,Weather View 32 v60,2013-04-24 20:34:00,
2013-04-24 16:39:00,72.0,20.1,29.91,WSW,257,4.0,9.0,14,0.00,,,-99.99,Weather View 32 v60,2013-04-24 20:39:00,
2013-04-24 16:44:00,72.0,20.1,29.91,West,275,4.0,9.0,14,0.00,,,-99.99,Weather View 32 v60,2013-04-24 20:44:00,
2013-04-24 16:54:00,71.6,19.8,29.91,WSW,255,3.0,7.0,14,0.00,,,-99.99,Weather View 32 v60,2013-04-24 20:54:00,
2013-04-24 16:59:00,71.4,19.6,29.91,WSW,251,4.0,7.0,14,0.00,,,-99.99,Weather View 32 v60,2013-04-24 20:59:00,
2013-04-24 17:04:00,71.2,19.5,29.94,SW,218,4.0,7.0,14,0.00,,,-99.99,Weather View 32 v60,2013-04-24 21:04:00,
2013-04-24 17:09:00,70.9,19.2,29.94,West,272,6.0,9.0,14,0.00,,,-99.99,Weather View 32 v60,2013-04-24 21:09:00,
2013-04-24 17:14:00,70.9,19.2,29.94,SW,230,4.0,9.0,14,0.00,,,-99.99,Weather View 32 v60,2013-04-24 21:14:00,
2013-04-24 17:24:00,70.5,18.9,29.94,SW,223,6.0,12.0,14,0.00,,,-99.99,Weather View 32 v60,2013-04-24 21:24:00,
2013-04-24 17:34:00,70.2,18.6,29.94,WNW,289,4.0,12.0,14,0.00,,,-99.99,Weather View 32 v60,2013-04-24 21:34:00,
2013-04-24 17:44:00,69.8,18.4,29.94,WNW,282,7.0,12.0,14,0.00,,,-99.99,Weather View 32 v60,2013-04-24 21:44:00,
2013-04-24 17:49:00,69.6,18.2,29.94,West,269,12.0,18.0,14,0.00,,,-99.99,Weather View 32 v60,2013-04-24 21:49:00,
2013-04-24 17:54:00,69.3,22.5,29.94,WSW,254,6.0,18.0,17,0.00,,,-99.99,Weather View 32 v60,2013-04-24 21:54:00,
2013-04-24 18:00:00,68.7,22.0,29.94,NW,304,9.0,18.0,17,0.00,,,-99.99,Weather View 32 v60,2013-04-24 22:00:00,
2013-04-24 18:09:00,67.6,21.2,29.94,West,260,6.0,18.0,17,0.00,,,-99.99,Weather View 32 v60,2013-04-24 22:09:00,
2013-04-24 18:19:00,66.7,24.3,29.94,West,274,4.0,18.0,20,0.00,,,-99.99,Weather View 32 v60,2013-04-24 22:19:00,
2013-04-24 18:24:00,66.6,24.2,29.94,WNW,289,4.0,18.0,20,0.00,,,-99.99,Weather View 32 v60,2013-04-24 22:24:00,
2013-04-24 18:29:00,66.4,24.0,29.94,WSW,238,4.0,18.0,20,0.00,,,-99.99,Weather View 32 v60,2013-04-24 22:29:00,
2013-04-24 18:34:00,66.2,27.2,29.94,WSW,258,4.0,18.0,23,0.00,,,-99.99,Weather View 32 v60,2013-04-24 22:34:00,
2013-04-24 18:44:00,66.4,27.4,29.94,SW,228,3.0,18.0,23,0.00,,,-99.99,Weather View 32 v60,2013-04-24 22:44:00,
2013-04-24 18:50:00,66.7,28.7,29.94,WSW,245,4.0,18.0,24,0.00,,,-99.99,Weather View 32 v60,2013-04-24 22:50:00,
2013-04-24 18:59:00,66.7,28.7,29.94,West,272,8.0,15.0,24,0.00,,,-99.99,Weather View 32 v60,2013-04-24 22:59:00,
2013-04-24 19:04:00,66.9,28.9,29.94,WSW,248,7.0,10.0,24,0.00,,,-99.99,Weather View 32 v60,2013-04-24 23:04:00,
2013-04-24 19:14:00,66.7,28.7,29.94,WSW,249,4.0,9.0,24,0.00,,,-99.99,Weather View 32 v60,2013-04-24 23:14:00,
2013-04-24 19:24:00,66.4,28.4,29.94,West,278,5.0,9.0,24,0.00,,,-99.99,Weather View 32 v60,2013-04-24 23:24:00,
2013-04-24 19:34:00,66.0,28.1,29.94,West,272,3.0,9.0,24,0.00,,,-99.99,Weather View 32 v60,2013-04-24 23:34:00,
2013-04-24 19:44:00,65.7,27.8,29.94,WSW,253,3.0,9.0,24,0.00,,,-99.99,Weather View 32 v60,2013-04-24 23:44:00,
2013-04-24 19:54:00,65.7,27.8,29.94,West,265,3.0,9.0,24,0.00,,,-99.99,Weather View 32 v60,2013-04-24 23:54:00,
2013-04-24 19:59:00,65.5,27.7,29.94,WSW,252,4.0,9.0,24,0.00,,,-99.99,Weather View 32 v60,2013-04-24 23:59:00,
2013-04-24 20:09:00,65.3,27.5,29.94,SW,236,0.0,9.0,24,0.00,,,-99.99,Weather View 32 v60,2013-04-25 00:09:00,
2013-04-24 20:19:00,64.9,27.2,29.94,WNW,294,3.0,7.0,24,0.00,,,-99.99,Weather View 32 v60,2013-04-25 00:19:00,
2013-04-24 20:25:00,64.8,27.0,29.94,WNW,293,0.0,7.0,24,0.00,,,-99.99,Weather View 32 v60,2013-04-25 00:25:00,
2013-04-24 20:34:00,64.6,27.9,29.94,West,280,4.0,7.0,25,0.00,,,-99.99,Weather View 32 v60,2013-04-25 00:34:00,
2013-04-24 20:44:00,64.4,27.7,29.94,West,268,0.0,7.0,25,0.00,,,-99.99,Weather View 32 v60,2013-04-25 00:44:00,
2013-04-24 20:49:00,64.4,27.7,29.94,West,268,0.0,7.0,25,0.00,,,-99.99,Weather View 32 v60,2013-04-25 00:49:00,
2013-04-24 20:54:00,64.2,27.6,29.94,West,268,3.0,7.0,25,0.00,,,-99.99,Weather View 32 v60,2013-04-25 00:54:00,
2013-04-24 21:04:00,64.0,27.4,29.94,West,277,0.0,6.0,25,0.00,,,-99.99,Weather View 32 v60,2013-04-25 01:04:00,
2013-04-24 21:09:00,63.9,27.3,29.94,West,277,3.0,6.0,25,0.00,,,-99.99,Weather View 32 v60,2013-04-25 01:09:00,
2013-04-24 21:14:00,63.7,27.1,29.94,West,275,0.0,6.0,25,0.00,,,-99.99,Weather View 32 v60,2013-04-25 01:14:00,
2013-04-24 21:24:00,63.9,27.3,29.94,West,275,3.0,6.0,25,0.00,,,-99.99,Weather View 32 v60,2013-04-25 01:24:00,
2013-04-24 21:34:00,63.9,27.3,29.94,SW,234,0.0,6.0,25,0.00,,,-99.99,Weather View 32 v60,2013-04-25 01:34:00,
2013-04-24 21:44:00,63.7,27.1,29.94,SW,234,0.0,4.0,25,0.00,,,-99.99,Weather View 32 v60,2013-04-25 01:44:00,
2013-04-24 21:49:00,63.7,28.1,29.97,West,261,0.0,4.0,26,0.00,,,-99.99,Weather View 32 v60,2013-04-25 01:49:00,
2013-04-24 21:59:00,63.5,27.9,29.97,NW,307,0.0,4.0,26,0.00,,,-99.99,Weather View 32 v60,2013-04-25 01:59:00,
2013-04-24 22:04:00,63.5,27.9,29.97,WNW,298,0.0,4.0,26,0.00,,,-99.99,Weather View 32 v60,2013-04-25 02:04:00,
2013-04-24 22:09:00,63.5,27.9,29.97,SW,232,4.0,4.0,26,0.00,,,-99.99,Weather View 32 v60,2013-04-25 02:09:00,
2013-04-24 22:14:00,63.5,28.8,29.97,North,356,0.0,4.0,27,0.00,,,-99.99,Weather View 32 v60,2013-04-25 02:14:00,
2013-04-24 22:20:00,63.3,28.7,29.97,North,356,3.0,4.0,27,0.00,,,-99.99,Weather View 32 v60,2013-04-25 02:20:00,
2013-04-24 22:29:00,63.1,28.5,29.97,North,356,3.0,4.0,27,0.00,,,-99.99,Weather View 32 v60,2013-04-25 02:29:00,
2013-04-24 22:39:00,63.0,28.4,29.97,North,356,0.0,4.0,27,0.00,,,-99.99,Weather View 32 v60,2013-04-25 02:39:00,
2013-04-24 22:49:00,63.0,28.4,29.97,North,356,0.0,4.0,27,0.00,,,-99.99,Weather View 32 v60,2013-04-25 02:49:00,
2013-04-24 22:59:00,62.8,29.1,29.97,North,356,0.0,4.0,28,0.00,,,-99.99,Weather View 32 v60,2013-04-25 02:59:00,
2013-04-24 23:04:00,62.6,29.0,29.97,North,356,0.0,4.0,28,0.00,,,-99.99,Weather View 32 v60,2013-04-25 03:04:00,
2013-04-24 23:14:00,62.6,29.0,29.97,North,356,0.0,4.0,28,0.00,,,-99.99,Weather View 32 v60,2013-04-25 03:14:00,
2013-04-24 23:20:00,62.6,29.0,29.97,North,356,0.0,4.0,28,0.00,,,-99.99,Weather View 32 v60,2013-04-25 03:20:00,
2013-04-24 23:30:00,62.4,28.8,29.97,North,356,0.0,3.0,28,0.00,,,-99.99,Weather View 32 v60,2013-04-25 03:30:00,
2013-04-24 23:39:00,62.2,28.7,29.97,North,356,0.0,3.0,28,0.00,,,-99.99,Weather View 32 v60,2013-04-25 03:39:00,
2013-04-24 23:44:00,62.2,29.5,29.97,North,356,0.0,3.0,29,0.00,,,-99.99,Weather View 32 v60,2013-04-25 03:44:00,
2013-04-24 23:49:00,62.2,29.5,29.97,North,356,0.0,3.0,29,0.00,,,-99.99,Weather View 32 v60,2013-04-25 03:49:00,
2013-04-24 23:59:00,62.1,29.4,29.97,North,356,0.0,3.0,29,0.00,,,-99.99,Weather View 32 v60,2013-04-25 03:59:00,